Find Starlink 32255

NORAD ID: 60417 Int'l Des: 2024-141 Owner: SPXS Country: US Constellation: starlink operational
LEOCIRCULAR

現在のビュー

3D地球を読み込み中...

About Starlink 32255

Starlink 32255 (NORAD 60417) is a starlink constellation satellite (v2 mini) launched Aug 10, 2024 by SPXS of US. It operates in LEO, CIRCULAR orbit with a mass of 730.00 kg.

Starlink 32255について

説明を読み込み中...

次回通過

Passes for default location (London). Set your location on the main map for personalized predictions.

高度履歴

Loading altitude history...

軌道要素

1 60417U 24141V 26193.54624238 .00010614 00000-0 32551-3 0 9996
2 60417 53.1623 20.7294 0001721 114.8691 245.2491 15.34334325108723
Epoch: Jul 12, 2026 • Age: 8 hours

現在のステータス

高度 467.9 km
遠地点 / 近地点 N/A
速度 7.64 km/s
衛星直下点 51.40°N, 121.2°W
打ち上げ日 Aug 10, 2024
運用期間 1.9 years
タイプ internet

技術仕様

分類 Payload
質量 730.00 kg
乾燥質量 700.00 kg
総質量 730.00 kg
長さ 0.30 m
直径 4.10 m
スパン 29.00 m
形状 Box + pan
製造者 SPXS
バスタイプ Starlink V2M
フェーズステータス In Orbit
所有者/国 SPXS/US

Most Searched